CW9665 Weather Reports


time (UTC)temp
C
wind
direction
speed
KPH
gust
KPH
rain 1hr
cm
rain 24hr
cm
rain mn
cm
humidity
%
barometer
mb
20260507220734 17 298 4.8 4.8 0.00 0.23 0.23 18 1017.0
20260507215734 17 177 3.2 4.8 0.00 0.23 0.23 18 1017.3
20260507214734 18 314 9.7 12.9 0.00 0.23 0.23 15 1017.5
20260507213733 18 191 4.8 6.4 0.00 0.23 0.23 19 1017.8
20260507212732 18 197 4.8 4.8 0.00 0.23 0.23 18 1017.8
20260507211731 18 205 4.8 4.8 0.00 0.23 0.23 18 1017.6
20260507210730 17 185 4.8 4.8 0.00 0.23 0.23 21 1017.9
20260507205729 17 167 4.8 6.4 0.00 0.23 0.23 18 1017.9
20260507204728 17 152 1.6 1.6 0.00 0.23 0.23 20 1017.9
20260507203724 17 190 6.4 9.7 0.00 0.23 0.23 18 1018.0
20260507202723 16 174 3.2 4.8 0.00 0.23 0.23 22 1018.1
20260507201720 17 182 6.4 6.4 0.00 0.23 0.23 22 1018.3
20260507200719 16 192 6.4 6.4 0.00 0.23 0.23 21 1018.4
20260507195718 16 192 3.2 4.8 0.00 0.23 0.23 23 1018.5
20260507194718 16 339 8.0 11.3 0.00 0.23 0.23 18 1018.6
20260507193717 16 194 6.4 6.4 0.00 0.23 0.23 27 1018.6
20260507192716 16 110 4.8 4.8 0.00 0.23 0.23 27 1018.9
20260507191714 15 188 4.8 6.4 0.00 0.23 0.23 27 1019.0
20260507190714 15 144 8.0 9.7 0.00 0.23 0.23 23 1019.0
20260507185711 14 9 1.6 3.2 0.00 0.23 0.23 29 1019.2
20260507184711 15 186 4.8 4.8 0.00 0.23 0.23 23 1019.3
20260507183711 14 165 3.2 3.2 0.00 0.23 0.23 26 1019.5
20260507182711 14 183 1.6 3.2 0.00 0.23 0.23 23 1019.5
20260507181709 13 189 3.2 3.2 0.00 0.23 0.23 26 1019.4
20260507180709 13 132 1.6 1.6 0.00 0.23 0.23 34 1019.9
20260507175706 13 161 1.6 1.6 0.00 0.23 0.23 29 1019.3
20260507174701 13 163 3.2 4.8 0.00 0.23 0.23 30 1020.0
20260507173656 12 170 1.6 1.6 0.00 0.23 0.23 38 1020.2
20260507172655 12 169 3.2 4.8 0.00 0.23 0.23 41 1020.4
20260507171652 11 162 0.0 0.0 0.18 0.23 0.23 45 1020.3
20260507170652 11 159 0.0 0.0 0.18 0.23 0.23 45 1020.2
20260507165651 11 145 1.6 1.6 0.13 0.20 0.20 37 1020.4
20260507164649 11 144 0.0 0.0 0.30 0.18 0.18 42 1020.3
20260507163650 10 143 1.6 1.6 0.13 0.15 0.15 40 1020.5
20260507162649 10 147 0.0 1.6 0.00 0.13 0.13 42 1020.5
20260507161648 10 142 0.0 0.0 0.00 0.13 0.13 48 1020.3
20260507160647 8 142 0.0 0.0 0.00 0.13 0.13 41 1020.4
20260507155645 7 137 0.0 0.0 0.00 0.13 0.13 72 1020.4
20260507154644 7 142 0.0 0.0 0.30 0.13 0.13 66 1020.5
20260507153644 6 142 1.6 1.6 0.30 0.08 0.08 68 1020.8
20260507152642 5 143 0.0 0.0 0.18 0.03 0.03 71 1020.8
20260507151640 5 143 1.6 1.6 0.00 0.00 0.00 71 1020.9
20260507150639 4 142 1.6 1.6 0.00 0.00 0.00 69 1020.5
20260507145637 3 111 3.2 4.8 0.00 0.00 0.00 64 1021.0
20260507144637 3 147 0.0 0.0 0.00 0.00 0.00 66 1020.8
20260507143637 2 145 0.0 0.0 0.00 0.00 0.00 67 1020.9
20260507142635 2 130 0.0 0.0 0.00 0.00 0.00 63 1020.9
20260507141635 1 142 0.0 0.0 0.00 0.00 0.00 67 1021.2
20260507140634 1 135 0.0 0.0 0.00 0.00 0.00 66 1021.0
20260507135634 0 4 0.0 0.0 0.00 0.00 0.00 67 1021.0
20260507134633 0 128 0.0 0.0 0.00 0.00 0.00 67 1021.0
20260507133631 0 121 0.0 0.0 0.00 0.00 0.00 67 1021.0
20260507132631 -1 323 0.0 0.0 0.00 0.00 0.00 69 1020.9
20260507131630 -1 105 0.0 0.0 0.00 0.00 0.00 67 1020.9
20260507130630 -1 316 0.0 0.0 0.00 0.00 0.00 70 1020.7
20260507125627 -2 129 0.0 0.0 0.00 0.00 0.00 70 1020.5
20260507124625 -2 341 0.0 0.0 0.00 0.00 0.00 69 1020.5
20260507123622 -2 105 0.0 0.0 0.00 0.00 0.00 70 1020.4
20260507122619 -2 9 0.0 0.0 0.00 0.00 0.00 72 1020.4
20260507121617 -2 102 0.0 0.0 0.00 0.00 0.00 73 1020.4
20260507120615 -2 122 0.0 0.0 0.00 0.00 0.00 74 1020.3
20260507115615 -2 97 0.0 0.0 0.00 0.00 0.00 72 1020.4
20260507114612 -3 132 0.0 0.0 0.00 0.00 0.00 76 1020.3
20260507113607 -2 132 0.0 0.0 0.00 0.00 0.00 74 1020.4
20260507112602 -2 45 0.0 0.0 0.00 0.00 0.00 75 1020.3
20260507111601 -2 130 0.0 0.0 0.00 0.00 0.00 69 1020.4
20260507110600 -2 96 0.0 0.0 0.00 0.00 0.00 73 1020.4
20260507105559 -2 127 0.0 0.0 0.00 0.00 0.00 74 1020.3
20260507104559 -2 133 0.0 0.0 0.00 0.00 0.00 78 1020.4
20260507103557 -3 137 0.0 0.0 0.00 0.00 0.00 76 1020.5
20260507102556 -2 121 0.0 0.0 0.00 0.00 0.00 77 1020.4
20260507101554 -2 63 0.0 0.0 0.00 0.00 0.00 74 1020.3
20260507100554 -2 26 0.0 0.0 0.00 0.00 0.00 77 1020.3
20260507095549 -2 2 0.0 0.0 0.00 0.00 0.00 77 1020.0
20260507094548 -2 347 0.0 0.0 0.00 0.00 0.00 76 1020.4
20260507093548 -2 134 0.0 0.0 0.00 0.00 0.00 77 1020.5
20260507092543 -2 134 0.0 0.0 0.00 0.00 0.00 80 1020.3
20260507091542 -2 134 0.0 0.0 0.00 0.00 0.00 80 1020.4
20260507090540 -2 134 0.0 0.0 0.00 0.00 0.00 80 1020.3
20260507085540 -2 134 0.0 0.0 0.00 0.00 0.00 81 1020.3
20260507084539 -2 134 0.0 0.0 0.00 0.00 0.00 81 1020.5
20260507083538 -3 134 0.0 0.0 0.00 0.00 0.00 83 1020.4
20260507082537 -2 134 0.0 0.0 0.00 0.00 0.00 83 1020.2
20260507081536 -2 134 0.0 0.0 0.00 0.00 0.00 83 1020.5
20260507080535 -2 134 0.0 0.0 0.00 0.00 0.00 81 1020.4
20260507075533 -2 134 0.0 0.0 0.00 0.00 0.00 80 1020.5
20260507074532 -2 134 0.0 0.0 0.00 0.00 0.00 83 1020.5
20260507073532 -2 134 0.0 0.0 0.00 0.00 0.00 83 1020.5
20260507072532 -2 134 0.0 0.0 0.00 0.00 0.00 84 1020.9
20260507071527 -2 134 0.0 0.0 0.00 0.00 0.00 85 1020.8
20260507070526 -2 134 0.0 0.0 0.00 0.00 0.00 85 1020.7
20260507065526 -2 134 0.0 0.0 0.00 0.00 0.00 87 1020.5
20260507064521 -3 134 0.0 0.0 0.00 0.00 0.00 88 1020.8
20260507063522 -3 134 0.0 0.0 0.00 0.00 0.00 88 1020.8
20260507062521 -2 134 0.0 0.0 0.00 0.00 0.00 87 1020.7
20260507061516 -2 134 0.0 0.0 0.00 0.00 0.00 88 1020.7
20260507060512 -2 134 0.0 0.0 0.00 0.00 0.00 88 1020.5
20260507055509 -2 134 0.0 0.0 0.00 0.51 0.51 88 1020.4
20260507054507 -3 134 0.0 0.0 0.00 0.51 0.51 90 1020.3
20260507053507 -3 134 0.0 0.0 0.00 0.51 0.51 91 1020.2
20260507052503 -3 134 0.0 0.0 0.00 0.51 0.51 92 1020.2
20260507051503 -3 134 0.0 0.0 0.00 0.51 0.51 93 1020.3
20260507050501 -3 134 0.0 0.0 0.00 0.51 0.51 93 1020.3
20260507045501 -3 134 0.0 0.0 0.00 0.51 0.51 93 1020.2
20260507044500 -3 134 0.0 0.0 0.00 0.51 0.51 94 1020.3
20260507043458 -3 134 0.0 0.0 0.00 0.51 0.51 94 1020.0
20260507042458 -3 134 0.0 0.0 0.00 0.51 0.51 94 1020.2
20260507041456 -3 134 0.0 0.0 0.00 0.51 0.51 94 1020.2
20260507040455 -3 134 0.0 0.0 0.00 0.51 0.51 94 1020.3
20260507035453 -3 134 0.0 0.0 0.00 0.51 0.51 94 1020.0
20260507034453 -2 134 0.0 0.0 0.00 0.51 0.51 94 1020.2
20260507033449 -2 134 0.0 0.0 0.00 0.51 0.51 94 1020.2
20260507032448 -2 134 0.0 0.0 0.00 0.51 0.51 94 1019.9
20260507031446 -2 134 0.0 0.0 0.00 0.51 0.51 94 1019.8
20260507030446 -2 134 0.0 0.0 0.00 0.51 0.51 94 1019.8
20260507025441 -2 134 0.0 0.0 0.00 0.51 0.51 93 1019.7
20260507024436 -2 134 0.0 0.0 0.00 0.51 0.51 94 1019.7
20260507023434 -2 134 0.0 0.0 0.00 0.51 0.51 94 1019.5
20260507022435 -2 134 0.0 0.0 0.00 0.51 0.51 93 1019.5
20260507021431 -2 134 0.0 0.0 0.00 0.51 0.51 92 1019.2
20260507020431 -2 134 0.0 0.0 0.00 0.51 0.51 93 1019.2
20260507015427 -2 134 0.0 0.0 0.00 0.51 0.51 92 1019.0
20260507014426 -1 134 0.0 0.0 0.00 0.51 0.51 91 1019.0
20260507013425 -1 134 0.0 0.0 0.00 0.51 0.51 88 1018.9
20260507012425 -1 134 0.0 0.0 0.00 0.51 0.51 87 1018.9
20260507011425 -1 134 0.0 0.0 0.00 0.51 0.51 88 1018.6
20260507010420 0 134 0.0 0.0 0.00 0.51 0.51 89 1018.8
20260507005421 -1 134 0.0 0.0 0.00 0.51 0.51 89 1018.6
20260507004420 -1 134 0.0 0.0 0.13 0.51 0.51 89 1018.6
20260507003418 -1 134 0.0 0.0 0.00 0.48 0.48 88 1018.6
20260507002416 -1 134 0.0 0.0 0.00 0.48 0.48 90 1018.5
20260507001416 0 134 0.0 0.0 0.18 0.48 0.48 87 1018.4
20260507000414 0 134 0.0 0.0 0.00 0.46 0.46 87 1018.6
20260506235414 0 134 0.0 0.0 0.18 0.46 0.46 89 1018.1
20260506234413 0 134 0.0 0.0 0.00 0.43 0.43 87 1018.1
20260506233412 -1 134 0.0 0.0 0.00 0.43 0.43 91 1018.3
20260506232412 -1 135 0.0 0.0 0.00 0.43 0.43 92 1018.0
20260506231411 -1 135 0.0 0.0 0.13 0.43 0.43 91 1017.6
20260506230411 -1 135 0.0 0.0 0.00 0.41 0.41 91 1017.9
20260506225410 -1 135 0.0 0.0 0.00 0.41 0.41 91 1017.8
20260506224405 -1 135 0.0 0.0 0.00 0.41 0.41 92 1017.6
20260506223402 -1 135 0.0 0.0 0.00 0.41 0.41 93 1017.8
20260506222401 -1 136 0.0 0.0 0.00 0.41 0.41 93 1017.5